Tracking 19489 objects as of 22-Jan-2019
HD Live streaming from Space Station
objects crossing your sky now

FENGYUN 1C DEB

Track FENGYUN 1C DEB now!
10-day predictions


NORAD ID: 31660
Int'l Code: 1999-025CBS
Perigee: 751.4 km
Apogee: 911.8 km
Inclination: 98.7 °
Period: 101.4 minutes
Semi major axis: 7202 km
RCS: 0.0107 m2 (small)
Launch date: May 10, 1999
Source: People's Republic of China (PRC)
Launch site: Taiyaun Space Center, China (TSC)

Note: This is SATELLITE DEBRIS
aabbcc
Your satellite tracking list
Your tracking list is empty




NASA's NSSDC Master Catalog

Two Line Element Set (TLE):
1 31660U 99025CBS 19020.36808595  .00000184  00000-0  10025-3 0  9991
2 31660  98.6746  61.6595 0111298 294.6730  64.2890 14.20260357605980
Source of the keplerian elements: AFSPC